Regional Weather Roundup
Issued by NWS Cleveland, OH

Home | Current Version | Previous Version | Text Only | Print | Product List | Glossary Off
Versions: 1 2 3 4 5 6 7 8 9 10 11 12 13 14 15 16 17 18 19 20 21 22 23 24 25 26 27 28 29 30 31 32 33 34 35 36 37 38 39 40 41 42 43 44 45 46 47 48 49 50

000
ASUS41 KCLE 291600
RWRCLE
OHIO REGIONAL WEATHER ROUNDUP
NATIONAL WEATHER SERVICE WILMINGTON, OH
1200 PM EDT FRI AUG 29 2014

NOTE: "FAIR" INDICATES FEW OR NO CLOUDS BELOW 12,000 FEET WITH NO
SIGNIFICANT WEATHER AND/OR OBSTRUCTIONS TO VISIBILITY.

OHZ001>008-015>018-024>027-034-035-043-044-291700-
   NORTHWEST OHIO

CITY           SKY/WX    TMP DP  RH WIND       PRES   REMARKS
DEFIANCE       MOSUNNY   75  58  55 S8        30.11S
FINDLAY        SUNNY     77  60  55 S13       30.11F
TOLEDO EXPRESS PTSUNNY   70  58  65 VRB3      30.11F
TOLEDO METCALF PTSUNNY   74  58  57 VRB7      30.12F
LIMA           SUNNY     76  60  57 S10       30.12S
$$

OHZ009>014-019>023-028>033-038-089-291700-
   NORTHEAST OHIO

CITY           SKY/WX    TMP DP  RH WIND       PRES   REMARKS
CLE-HOPKINS    PTSUNNY   69  54  58 S7        30.17F
CLE-LAKEFRONT  MOSUNNY   73  51  46 SE9       30.14F
CUY CO. ARPT   MOSUNNY   72  55  56 SE12      30.16F
LORAIN-ELYRIA  PTSUNNY   71  55  56 S8        30.16F
ASHTABULA      SUNNY     69  51  52 S8        30.18F
AKRON-CANTON   MOSUNNY   71  50  47 VRB6      30.17S
WOOSTER        NOT AVBL
MANSFIELD      PTSUNNY   72  56  57 SE7       30.16S
YOUNGSTOWN     MOSUNNY   69  53  56 SE8       30.18F
$$

OHZ042-051>053-060>062-070>072-077>081-291700-
  SOUTHWEST OHIO

CITY           SKY/WX    TMP DP  RH WIND       PRES   REMARKS
CINC-COVINGTON MOSUNNY   82  63  52 SE8       30.09F
CINC-LUNKEN    SUNNY     81  63  54 S6        30.09F
HAMILTON       SUNNY     81  63  54 E8        30.10F
DAYTON         NOT AVBL
WRIGHT-PAT AFB MOSUNNY   76  62  60 VRB6      30.12F
DAYTON GENERAL MOSUNNY   77  63  61 SE9       30.11F
WILMINGTON     SUNNY     76  62  62 SE8       30.13S
$$

OHZ036-037-039>041-045>050-054>059-063>069-073>076-082>088-291700-
  CENTRAL AND SOUTHEAST OHIO

CITY           SKY/WX    TMP DP  RH WIND       PRES   REMARKS
COLUMBUS       MOSUNNY   77  55  46 SE7       30.14S
OSU AIRPORT    SUNNY     75  55  49 SE9       30.14S
BOLTON FIELD   SUNNY     73  61  64 SE6       30.15S
RICKENBACK AFB NOT AVBL
NEWARK         SUNNY     74  56  53 S6        30.15R
MARION         SUNNY     74  57  55 SE10      30.14F
LANCASTER      SUNNY     76  58  53 SE6       30.14S
ZANESVILLE     SUNNY     73  55  53 VRB6      30.15S
NEW PHILLY     SUNNY     72  57  59 SE5       30.17S
$$


USA.gov is the U.S. government's official web portal to all federal, state and local government web resources and services.